Radiation Dose at Monitoring Post of Fukushima Daini Nuclear Power Station
Date,Time,MP-1(microSv/h),MP-2(microSv/h),MP-3(microSv/h),MP-4(microSv/h),MP-5(microSv/h),MP-6(microSv/h),MP-7(microSv/h),Wind Direction,Wind Velocity(m/s),Rain
2021/04/23,00:00,0.173,0.154,0.255,0.240,0.237,0.134,0.083,north-northwest,5.8,No
2021/04/23,00:10,0.173,0.154,0.255,0.240,0.236,0.135,0.083,north,4.5,No
2021/04/23,00:20,0.172,0.154,0.256,0.242,0.237,0.135,0.083,north,4.9,No
2021/04/23,00:30,0.173,0.154,0.256,0.241,0.237,0.134,0.082,north-northwest,5.1,No
2021/04/23,00:40,0.172,0.154,0.255,0.240,0.237,0.134,0.082,north-northwest,4.9,No
2021/04/23,00:50,0.173,0.155,0.256,0.241,0.237,0.134,0.083,north,5.3,No
2021/04/23,01:00,0.173,0.155,0.256,0.241,0.237,0.135,0.082,north-northwest,4.9,No
2021/04/23,01:10,0.173,0.154,0.255,0.242,0.237,0.134,0.082,northwest,6.1,No
2021/04/23,01:20,0.173,0.155,0.255,0.240,0.236,0.134,0.083,northwest,5.6,No
2021/04/23,01:30,0.171,0.155,0.255,0.242,0.237,0.134,0.083,northwest,6.0,No
2021/04/23,01:40,0.174,0.154,0.256,0.241,0.237,0.135,0.083,north-northwest,5.8,No
2021/04/23,01:50,0.173,0.154,0.257,0.241,0.237,0.134,0.083,northwest,6.0,No
2021/04/23,02:00,0.173,0.156,0.255,0.240,0.236,0.134,0.082,northwest,6.0,No
2021/04/23,02:10,0.172,0.155,0.256,0.242,0.236,0.135,0.084,northwest,6.7,No
2021/04/23,02:20,0.174,0.153,0.256,0.241,0.237,0.134,0.083,northwest,7.3,No
2021/04/23,02:30,0.172,0.155,0.255,0.241,0.236,0.135,0.083,northwest,6.9,No
2021/04/23,02:40,0.172,0.154,0.256,0.240,0.237,0.135,0.082,northwest,6.8,No
2021/04/23,02:50,0.173,0.155,0.254,0.241,0.237,0.134,0.084,northwest,6.1,No
2021/04/23,03:00,0.173,0.155,0.255,0.242,0.236,0.134,0.083,northwest,6.8,No
2021/04/23,03:10,0.174,0.155,0.256,0.241,0.237,0.134,0.082,northwest,6.6,No
2021/04/23,03:20,0.173,0.154,0.256,0.242,0.235,0.134,0.083,northwest,6.5,No
2021/04/23,03:30,0.172,0.154,0.256,0.241,0.238,0.134,0.084,northwest,6.5,No
2021/04/23,03:40,0.173,0.155,0.256,0.240,0.237,0.133,0.083,northwest,6.4,No
2021/04/23,03:50,0.172,0.154,0.254,0.241,0.237,0.134,0.083,northwest,6.0,No
2021/04/23,04:00,0.173,0.154,0.256,0.241,0.235,0.134,0.083,northwest,5.5,No
2021/04/23,04:10,0.174,0.155,0.256,0.240,0.237,0.133,0.083,northwest,6.0,No
2021/04/23,04:20,0.172,0.155,0.256,0.241,0.237,0.134,0.083,northwest,5.7,No
2021/04/23,04:30,0.172,0.155,0.255,0.240,0.236,0.134,0.084,northwest,6.0,No
2021/04/23,04:40,0.173,0.154,0.254,0.241,0.237,0.134,0.083,northwest,5.8,No
2021/04/23,04:50,0.172,0.155,0.256,0.241,0.237,0.134,0.084,northwest,5.6,No
2021/04/23,05:00,0.172,0.153,0.256,0.241,0.236,0.134,0.083,northwest,5.7,No
2021/04/23,05:10,0.172,0.154,0.254,0.242,0.237,0.135,0.083,northwest,6.0,No
2021/04/23,05:20,0.172,0.154,0.255,0.240,0.237,0.134,0.084,northwest,6.4,No
2021/04/23,05:30,0.173,0.155,0.256,0.241,0.236,0.134,0.083,north-northwest,5.9,No
2021/04/23,05:40,0.173,0.154,0.256,0.241,0.237,0.134,0.083,northwest,6.3,No
2021/04/23,05:50,0.172,0.154,0.255,0.241,0.236,0.135,0.082,northwest,6.0,No
2021/04/23,06:00,0.173,0.155,0.255,0.240,0.237,0.134,0.083,northwest,6.2,No
2021/04/23,06:10,0.174,0.154,0.255,0.240,0.237,0.134,0.083,north-northwest,6.2,No
2021/04/23,06:20,0.172,0.155,0.254,0.241,0.236,0.134,0.083,north-northwest,4.7,No
2021/04/23,06:30,0.173,0.154,0.255,0.241,0.237,0.134,0.083,northwest,4.5,No
2021/04/23,06:40,0.173,0.154,0.254,0.241,0.236,0.135,0.083,north-northwest,4.2,No
2021/04/23,06:50,0.173,0.154,0.254,0.240,0.236,0.134,0.083,north-northwest,3.8,No
2021/04/23,07:00,0.172,0.153,0.255,0.241,0.236,0.134,0.083,north-northwest,4.3,No
2021/04/23,07:10,0.172,0.155,0.255,0.239,0.236,0.135,0.083,north-northwest,3.3,No
2021/04/23,07:20,0.173,0.154,0.253,0.239,0.236,0.135,0.082,north,3.3,No
2021/04/23,07:30,0.171,0.154,0.254,0.240,0.237,0.134,0.082,north-northwest,2.2,No
2021/04/23,07:40,0.172,0.155,0.252,0.240,0.236,0.135,0.082,north-northwest,3.3,No
2021/04/23,07:50,0.173,0.153,0.254,0.240,0.237,0.135,0.083,north-northeast,4.4,No
2021/04/23,08:00,0.171,0.154,0.254,0.240,0.237,0.135,0.083,north-northeast,4.2,No
2021/04/23,08:10,0.172,0.154,0.254,0.240,0.236,0.134,0.083,north-northeast,6.6,No
2021/04/23,08:20,0.170,0.153,0.254,0.239,0.239,0.133,0.083,north,6.3,No
2021/04/23,08:30,0.174,0.155,0.254,0.240,0.235,0.135,0.083,north,6.6,No
2021/04/23,08:40,0.172,0.153,0.254,0.239,0.238,0.133,0.082,north-northeast,6.7,No
2021/04/23,08:50,0.172,0.154,0.255,0.240,0.234,0.134,0.083,north-northeast,5.9,No
2021/04/23,09:00,0.172,0.154,0.253,0.239,0.237,0.133,0.083,north,6.3,No
2021/04/23,09:10,0.172,0.155,0.255,0.240,0.235,0.134,0.083,north,6.1,No
2021/04/23,09:20,0.173,0.154,0.254,0.238,0.238,0.133,0.083,north-northeast,7.2,No
2021/04/23,09:30,0.171,0.154,0.254,0.240,0.235,0.133,0.082,north-northeast,7.2,No
2021/04/23,09:40,0.174,0.154,0.254,0.240,0.238,0.134,0.083,north,6.5,No
2021/04/23,09:50,0.172,0.153,0.255,0.240,0.235,0.134,0.083,north-northeast,6.8,No
2021/04/23,10:00,0.171,0.154,0.253,0.240,0.238,0.135,0.083,north,6.8,No
2021/04/23,10:10,0.173,0.154,0.254,0.240,0.236,0.134,0.083,north-northeast,8.6,No
2021/04/23,10:20,0.172,0.155,0.255,0.240,0.237,0.134,0.083,north-northeast,8.2,No
2021/04/23,10:30,0.173,0.154,0.256,0.240,0.236,0.134,0.083,north-northeast,7.8,No
2021/04/23,10:40,0.172,0.154,0.254,0.240,0.236,0.133,0.083,north-northeast,7.1,No
2021/04/23,10:50,0.173,0.155,0.254,0.240,0.239,0.134,0.083,north-northeast,7.0,No
2021/04/23,11:00,0.172,0.154,0.255,0.242,0.235,0.134,0.083,north-northeast,6.1,No
2021/04/23,11:10,0.173,0.155,0.255,0.240,0.238,0.135,0.083,north-northeast,6.6,No
2021/04/23,11:20,0.173,0.154,0.254,0.242,0.235,0.134,0.083,north-northeast,5.2,No
2021/04/23,11:30,0.173,0.154,0.255,0.239,0.237,0.134,0.082,northeast,5.3,No
2021/04/23,11:40,0.173,0.153,0.255,0.241,0.237,0.135,0.083,north-northeast,4.9,No
2021/04/23,11:50,0.172,0.155,0.256,0.239,0.237,0.133,0.083,northeast,4.2,No
2021/04/23,12:00,0.173,0.154,0.254,0.241,0.238,0.134,0.083,northeast,4.2,No
2021/04/23,12:10,0.173,0.155,0.257,0.241,0.235,0.134,0.083,northeast,4.0,No
2021/04/23,12:20,0.173,0.153,0.254,0.239,0.238,0.135,0.083,north-northeast,4.3,No
2021/04/23,12:30,0.172,0.154,0.256,0.243,0.236,0.134,0.082,north-northeast,4.9,No
2021/04/23,12:40,0.172,0.154,0.254,0.239,0.238,0.133,0.083,north-northeast,4.4,No
2021/04/23,12:50,0.172,0.154,0.258,0.242,0.237,0.134,0.083,northeast,4.1,No
2021/04/23,13:00,0.173,0.154,0.255,0.241,0.236,0.134,0.084,northeast,4.4,No
2021/04/23,13:10,0.173,0.155,0.255,0.239,0.238,0.134,0.083,northeast,6.7,No
2021/04/23,13:20,0.173,0.154,0.254,0.242,0.236,0.134,0.083,northeast,6.2,No
2021/04/23,13:30,0.171,0.155,0.255,0.240,0.237,0.135,0.083,northeast,4.8,No
2021/04/23,13:40,0.173,0.154,0.256,0.243,0.237,0.134,0.083,northeast,4.9,No
2021/04/23,13:50,0.172,0.154,0.257,0.242,0.235,0.136,0.083,north-northeast,5.8,No
2021/04/23,14:00,0.173,0.153,0.255,0.239,0.239,0.134,0.083,north-northeast,4.1,No
2021/04/23,14:10,0.172,0.155,0.256,0.242,0.237,0.135,0.083,north-northeast,6.1,No
2021/04/23,14:20,0.173,0.155,0.256,0.240,0.236,0.135,0.083,north-northeast,4.3,No
2021/04/23,14:30,0.173,0.156,0.257,0.243,0.238,0.134,0.083,north-northeast,4.6,No
2021/04/23,14:40,0.172,0.155,0.255,0.240,0.236,0.135,0.083,north-northeast,4.0,No
2021/04/23,14:50,0.172,0.155,0.256,0.240,0.237,0.134,0.083,northeast,4.5,No
2021/04/23,15:00,0.173,0.155,0.255,0.241,0.239,0.133,0.083,northeast,3.8,No
2021/04/23,15:10,0.173,0.154,0.257,0.240,0.236,0.135,0.083,north-northeast,2.4,No
2021/04/23,15:20,0.173,0.155,0.256,0.243,0.237,0.134,0.083,northeast,3.6,No
2021/04/23,15:30,0.173,0.154,0.259,0.242,0.238,0.135,0.083,north-northeast,3.3,No
2021/04/23,15:40,0.173,0.156,0.256,0.243,0.235,0.134,0.083,northeast,1.8,No
2021/04/23,15:50,0.173,0.155,0.257,0.243,0.239,0.134,0.083,northeast,1.9,No
2021/04/23,16:00,0.172,0.155,0.258,0.243,0.237,0.136,0.084,northeast,1.7,No
2021/04/23,16:10,0.173,0.155,0.257,0.244,0.234,0.134,0.083,northeast,2.1,No
2021/04/23,16:20,0.171,0.155,0.257,0.243,0.239,0.134,0.083,east-northeast,2.9,No
2021/04/23,16:30,0.173,0.155,0.257,0.242,0.238,0.134,0.083,northeast,1.6,No
2021/04/23,16:40,0.173,0.155,0.257,0.244,0.236,0.135,0.083,northeast,2.7,No
2021/04/23,16:50,0.173,0.155,0.257,0.243,0.239,0.135,0.084,northeast,3.6,No
2021/04/23,17:00,0.173,0.156,0.257,0.243,0.235,0.135,0.084,north-northeast,2.2,No
2021/04/23,17:10,0.172,0.155,0.257,0.243,0.238,0.134,0.083,north-northeast,2.2,No
2021/04/23,17:20,0.174,0.155,0.257,0.243,0.237,0.135,0.083,northeast,2.6,No
2021/04/23,17:30,0.174,0.156,0.256,0.243,0.240,0.134,0.083,northeast,2.4,No
2021/04/23,17:40,0.173,0.155,0.256,0.243,0.238,0.135,0.084,north-northeast,1.5,No
2021/04/23,17:50,0.173,0.155,0.257,0.243,0.241,0.134,0.083,northeast,1.9,No
2021/04/23,18:00,0.172,0.156,0.256,0.243,0.238,0.134,0.084,northeast,1.8,No
2021/04/23,18:10,0.175,0.155,0.256,0.242,0.238,0.135,0.084,northeast,1.5,No
2021/04/23,18:20,0.173,0.155,0.256,0.243,0.239,0.135,0.084,north-northeast,3.3,No
2021/04/23,18:30,0.173,0.156,0.256,0.244,0.238,0.136,0.083,north,3.6,No
2021/04/23,18:40,0.174,0.155,0.257,0.244,0.239,0.135,0.083,north-northwest,3.4,No
2021/04/23,18:50,0.173,0.155,0.256,0.242,0.237,0.135,0.083,north-northwest,3.6,No
2021/04/23,19:00,0.173,0.155,0.257,0.244,0.236,0.135,0.083,north-northwest,3.3,No
2021/04/23,19:10,0.174,0.156,0.256,0.243,0.239,0.136,0.084,north-northwest,3.8,No
2021/04/23,19:20,0.173,0.156,0.256,0.244,0.236,0.135,0.084,northwest,5.0,No
2021/04/23,19:30,0.173,0.157,0.257,0.243,0.238,0.135,0.083,north-northwest,5.9,No
2021/04/23,19:40,0.173,0.154,0.256,0.244,0.238,0.135,0.083,north-northwest,5.9,No
2021/04/23,19:50,0.172,0.156,0.257,0.243,0.237,0.135,0.084,north-northwest,6.1,No
2021/04/23,20:00,0.173,0.154,0.256,0.243,0.238,0.135,0.083,northwest,5.7,No
2021/04/23,20:10,0.174,0.154,0.257,0.243,0.239,0.136,0.084,northwest,5.6,No
2021/04/23,20:20,0.173,0.155,0.257,0.244,0.237,0.135,0.084,northwest,5.5,No
2021/04/23,20:30,0.173,0.156,0.256,0.242,0.236,0.135,0.084,northwest,5.2,No
2021/04/23,20:40,0.174,0.155,0.256,0.243,0.237,0.135,0.083,northwest,4.9,No
2021/04/23,20:50,0.173,0.155,0.258,0.243,0.238,0.135,0.083,northwest,4.4,No
2021/04/23,21:00,0.173,0.155,0.256,0.243,0.237,0.134,0.083,northwest,5.7,No
2021/04/23,21:10,0.174,0.155,0.257,0.242,0.237,0.136,0.083,northwest,4.6,No
2021/04/23,21:20,0.174,0.154,0.256,0.243,0.236,0.135,0.083,northwest,4.9,No
2021/04/23,21:30,0.173,0.156,0.256,0.242,0.236,0.135,0.084,northwest,5.2,No
2021/04/23,21:40,0.173,0.155,0.258,0.242,0.238,0.136,0.084,northwest,4.8,No
2021/04/23,21:50,0.173,0.155,0.256,0.242,0.238,0.134,0.083,northwest,5.1,No
2021/04/23,22:00,0.172,0.155,0.257,0.243,0.236,0.135,0.083,northwest,5.4,No
2021/04/23,22:10,0.173,0.155,0.256,0.243,0.238,0.135,0.083,northwest,4.5,No
2021/04/23,22:20,0.174,0.155,0.256,0.243,0.237,0.135,0.084,northwest,4.4,No
2021/04/23,22:30,0.173,0.156,0.257,0.243,0.236,0.135,0.084,northwest,4.7,No
2021/04/23,22:40,0.173,0.155,0.257,0.243,0.236,0.134,0.084,northwest,4.5,No
2021/04/23,22:50,0.174,0.155,0.256,0.242,0.237,0.134,0.083,northwest,4.3,No
2021/04/23,23:00,0.173,0.155,0.257,0.242,0.237,0.135,0.084,northwest,4.0,No
2021/04/23,23:10,0.173,0.155,0.257,0.242,0.236,0.135,0.083,west-northwest,3.5,No
2021/04/23,23:20,0.174,0.156,0.257,0.242,0.237,0.134,0.083,west-northwest,3.2,No
2021/04/23,23:30,0.174,0.155,0.255,0.243,0.238,0.135,0.083,west-northwest,4.0,No
2021/04/23,23:40,0.173,0.154,0.256,0.243,0.237,0.134,0.084,west-northwest,2.9,No
2021/04/23,23:50,0.173,0.156,0.258,0.242,0.237,0.136,0.083,west-northwest,3.0,No
